Regional Weather Roundup
Issued by NWS

Home | Current Version | Previous Version | Graphics & Text | Print | Product List | Glossary On
Versions: 1 2 3 4 5 6 7 8 9 10 11 12 13 14 15 16 17 18 19 20 21 22 23 24 25 26 27 28 29 30 31 32 33 34 35 36 37 38 39 40 41 42 43 44 45 46 47 48 49 50
675
ASUS44 KLIX 290110
RWRLA
LOUISIANA WEATHER ROUNDUP
NATIONAL WEATHER SERVICE NEW ORLEANS LA
700 PM CST FRI NOV 28 2014

NOTE: "FAIR" INDICATES FEW OR NO CLOUDS BELOW 12,000 FEET WITH NO
      SIGNIFICANT WEATHER AND/OR OBSTRUCTIONS TO VISIBILITY.
      SKY/WX - SKY CONDITION AND SIGNIFICANT WEATHER.
      TMP - AIR TEMPERATURE.    DP   - DEWPOINT TEMPERATURE.
      RH  - RELATIVE HUMIDITY.  PRES - PRESSURE.
      HX  - HEAT INDEX.         WCI  - WIND CHILL INDEX.

*  THESE STATIONS ARE NOT NWS OR FAA STATIONS AND ARE NOT UNDER
   NWS QUALITY CONTROL.

LAZ040-048-061>063-065-066-069-290200-
SOUTHEAST LOUISIANA

CITY           SKY/WX    TMP DP  RH WIND       PRES   REMARKS
N.O. AUDUBON     N/A     53  47  78 MISG        N/A
N.O. INTL ARPT CLEAR     52  43  71 SE6       30.30S
N.O. LAKEFRONT CLEAR     51  43  74 SE7       30.31S
N.O. DOWNTOWN* FAIR      54  41  62 E5        30.31S
SLIDELL        CLEAR     44  39  82 CALM      30.30S
BATON ROUGE    CLEAR     50  40  68 E9        30.27R
BOOTHVILLE     CLEAR     53  50  89 CALM      30.31S
BELLE CHASSE   PTCLDY    47  42  83 CALM      30.30F
BOGALUSA*        N/A     49  39  66 S5        30.30S
NEW ROADS*     FAIR      53  35  51 SE5       30.25S
GONZALES*      FAIR      50  45  81 CALM      30.28S
HAMMOND*       CLEAR     46  41  81 SE3       30.30F
HOUMA*         CLEAR     47  43  86 SE5       30.29S
PORT FOURCHON* MOCLDY    57  52  82 VRB3      30.32F

$$

LAZ041-044-053-054-290200-
SOUTHWEST LOUISIANA

CITY           SKY/WX    TMP DP  RH WIND       PRES   REMARKS
LAKE CHARLES   PTCLDY    54  52  93 SE6       30.23S
LAFAYETTE      CLEAR     54  49  83 S3        30.25F
PATTERSON      CLEAR     54  45  71 SE7       30.30S
SALT POINT       N/A     58  49  72 E5        30.26F
NEW IBERIA     CLEAR     53  48  83 SE8       30.26F
CHENAULT AIRPK NOT AVBL

$$

LAZ027-028-290200-
CENTRAL LOUISIANA

CITY           SKY/WX    TMP DP  RH WIND       PRES   REMARKS
FORT POLK      CLEAR     55  50  84 S8        30.20S
ALEXANDRIA INT CLEAR     49  43  80 SE7       30.20S
ALEXANDRIA     CLEAR     47  42  83 CALM      30.21F

$$

LAZ001-002-290200-
NORTHWEST LOUISIANA

CITY           SKY/WX    TMP DP  RH WIND       PRES   REMARKS
SHREVEPORT     CLEAR     55  46  71 S8        30.12F
BARKSDALE AFB  CLEAR     54  44  70 S10       30.13F
DTN SHREVEPORT CLEAR     56  44  64 S12       30.12F

$$

LAZ014-016-290200-
NORTHEAST LOUISIANA

CITY           SKY/WX    TMP DP  RH WIND       PRES   REMARKS
MONROE         CLEAR     51  36  56 S6        30.19F
TALLULAH       CLEAR     49  32  52 S8        30.22S

$$




USA.gov is the U.S. government's official web portal to all federal, state and local government web resources and services.